Regional Weather Roundup
Issued by NWS Wakefield, VA

Home | Current Version | Previous Version | Text Only | Print | Product List | Glossary On
Versions: 1 2 3 4 5 6 7 8 9 10 11 12 13 14 15 16 17 18 19 20 21 22 23 24 25 26 27 28 29 30 31 32 33 34 35 36 37 38 39 40 41 42 43 44 45 46 47 48 49 50
482
ASUS41 KAKQ 211215
RWRAKQ

REGIONAL WEATHER ROUNDUP
NATIONAL WEATHER SERVICE WAKEFIELD VA
700 AM EST TUE FEB 21 2017

Note: "fair" indicates few or no clouds below 12,000 feet with no
significant weather and/or obstructions to visibility. * = Denotes
station may not report precipitation (e.g., rain,snow,etc.),
thunder or fog.

VAZ042-051-052>054-056-211300-
NORTHERN VIRGINIA

CITY           SKY/WX    TMP DP  RH WIND       PRES   REMARKS
WASH NATIONAL  CLOUDY    41  27  57 E6        30.35F
DULLES         CLOUDY    37  23  56 CALM      30.34R
FORT BELVOIR   PTCLDY    40  26  56 CALM      30.35S
QUANTICO       CLOUDY    42  31  64 E6        30.36R
FREDERICKSBRG* PTCLDY    37  34  87 CALM      30.34R
STAFFORD*      PTCLDY    34  30  85 CALM      30.38R
WARRENTON      CLOUDY    35  28  76 NE3       30.31S
CULPEPER*      MOCLDY    35  31  86 CALM      30.33S
MANASSAS*      PTCLDY    32  29  88 CALM      30.35R
LEESBURG*      MOCLDY    39  28  65 MISG      30.35R
WINCHESTER     CLOUDY    41  23  48 E7        30.28S
FRONT ROYAL*   PTSUNNY   43  27  52 CALM      30.26F
LURAY*         CLOUDY    37  34  87 CALM      30.27R
$$

VAZ048-049-060>072-079>083-211300-
CENTRAL AND SOUTH CENTRAL VIRGINIA

CITY           SKY/WX    TMP DP  RH WIND       PRES   REMARKS
RICHMOND       CLOUDY    39  36  89 NE6       30.32R
CHESTERFIELD*  FAIR      36  19  51 CALM      30.34R
PETERSBURG*    CLOUDY    33  32  95 CALM      30.33R
HANOVER        CLOUDY    36  31  82 CALM      30.34R
TAPPAHANNOCK*  CLOUDY    35  32  87 CALM      30.33F
QUINTON*       FAIR      37  36  98 CALM      30.32R
CHARLOTTSVILLE CLOUDY    42  32  67 CALM      30.30S
GORDONSVILLE*  PTSUNNY   36  33  90 CALM      30.31S
ORANGE*        MOCLDY    34  32  93 CALM      30.33S
LOUISA*        CLOUDY    43  36  75 E3        30.30S
BUMPASS*       FAIR      37  33  84 CALM      30.32R
FARMVILLE*     CLOUDY    40  37  89 CALM      30.30S
CREWE*         FAIR      36  36 100 CALM      30.30S
FORT PICKETT*  FAIR      38  35  87 NE6       30.30S
CHASE CITY*    FAIR      37  36  94 CALM      30.30R
CLARKSVILLE*   FAIR      41  36  81 CALM      30.29S
SOUTH HILL*    MOCLDY    38  36  92 CALM      30.36S
LAWRENCEVILLE* FAIR      40  35  82 CALM      30.30S
EMPORIA*       PTCLDY    36  34  93 N3        30.32F
$$

VAZ088>098-211300-
SOUTHEAST VIRGINIA

CITY           SKY/WX    TMP DP  RH WIND       PRES   REMARKS
NORFOLK        MOCLDY    45  40  82 NE6       30.31R
VIRGINIA BEACH MOCLDY    43  38  82 NE6       30.31R
NORFOLK NAVAL  MOCLDY    45  39  79 NE8       30.32S
WEST POINT*    CLOUDY    34  33  95 CALM      30.35S
SALUDA*        FAIR      37  36  98 NE3       30.34R
NEWPORT NEWS   CLOUDY    36  33  89 E7        30.31S
LANGLEY AFB    PTCLDY    42  39  88 NE7       30.30S
FORT EUSTIS    CLOUDY    40  36  83 CALM      30.30R
WILLIAMSBURG*  CLOUDY    39  37  93 CALM      30.32F
HR EXEC AP*    FAIR      30  27  86 CALM      30.31R
FRANKLIN*      PTCLDY    35  33  91 CALM      30.32S
US460-WAKEFLD  CLOUDY    35  34  96 CALM      30.32R
$$

VAZ020-022-025-037-045-211300-
WEST CENTRAL AND SOUTHWEST VIRGINIA

CITY           SKY/WX    TMP DP  RH WIND       PRES   REMARKS
STAUNTON*      CLOUDY    34  31  88 CALM      30.28F
WAYNESBORO*    CLOUDY    42  29  58 SE9       30.27S
HOT SPRINGS VA CLOUDY    37  30  75 S10       30.22F
LYNCHBURG      PTCLDY    39  33  79 CALM      30.31S
DANVILLE       CLOUDY    41  38  89 CALM      30.29R
SOUTH BOSTON*  FAIR      38  37  95 CALM      30.30R
MARTINSVILLE   CLOUDY    41  37  84 CALM      30.30S
ROANOKE        PTCLDY    46  34  62 S5        30.29S
BLACKSBURG     PTCLDY    43  35  72 SE8       30.28S
DUBLIN*        CLOUDY    43  37  78 E5        30.25S
MARION*        MOCLDY    47  38  71 E3        30.23S
HILLSVILLE*    CLOUDY    46  35  66 SE7       30.21S
RICHLANDS*     FAIR      54  39  57 SE7G16    30.16S
WISE*          CLOUDY    54  32  43 CALM      30.15F
ABINGDON*      CLOUDY    53  41  63 E7        30.16S
$$

MDZ021>025-VAZ099-100-211300-
SOUTHERN MARYLAND AND THE DELMARVA PENINSULA

CITY           SKY/WX    TMP DP  RH WIND       PRES   REMARKS
PATUXENT RIVER CLOUDY    37  33  85 E7        30.35R
BAY BRIDGE APT CLOUDY    37  23  56 CALM      30.37R
LEONARDTOWN    PTCLDY    36  30  80 CALM      30.36S
DOVER          CLOUDY    33  28  81 N5        30.35S
GEORGETOWN     CLOUDY    33  29  85 CALM      30.36R
EASTON         MOCLDY    36  27  69 NE5       30.39S
CAMBRIDGE      NOT AVBL
SALISBURY      MOCLDY    33  30  88 CALM      30.35R
OCEAN CITY     MOCLDY    37  34  89 N3        30.35R
WALLOPS ISLAND CLOUDY    37  35  92 N5        30.35R
ACCOMACK*      PTCLDY    40  36  86 E8        30.33R
$$

NCZ012>017-030>032-211300-
NORTH CENTRAL AND EASTERN NORTH CAROLINA

CITY           SKY/WX    TMP DP  RH WIND       PRES   REMARKS
ROANOKE RAPIDS FAIR      37  36  93 CALM      30.30S
RALEIGH        MOCLDY    47  35  63 E3        30.27S
ELIZABETH CITY PTCLDY    44  42  93 N7        30.30R
AHOSKIE*         N/A     37  35  93 CALM      30.31R
EDENTON*       PTCLDY    40  38  91 CALM      30.30R
CURRITUCK*     PTCLDY    46  46 100 NE5       30.31R
KILL DEVIL HLS NOT AVBL
MANTEO         PTCLDY    48  42  77 E13       30.28S
CAPE HATTERAS  CLEAR     53  47  79 NE7       30.25R
TARBORO*       NOT AVBL
GOLDSBORO      CLOUDY    42  41  96 CALM      30.26R
WASHINGTON     CLOUDY    37  36  94 CALM      30.29R
GREENVILLE     NOT AVBL
NEW BERN       PTCLDY    43  42  97 CALM      30.28R
WILMINGTON     CLOUDY    43  42  97 NE6       30.25R
$$

VAZ048-211300-
ELSEWHERE

CITY           SKY/WX    TMP DP  RH WIND       PRES   REMARKS
HARRISBURG PA  MOCLDY    34  18  52 SE6       30.35S
BALTIMORE      CLOUDY    37  21  52 E5        30.35S
ANNAPOLIS      CLOUDY    41  24  51 E5        30.36R
ANDREWS AFB    CLOUDY    37  24  60 E6        30.33F
PHILADELPHIA   CLOUDY    35  18  49 NE5       30.38S
HENDERSON NC   MOCLDY    37  33  87 CALM      30.29R
GREENSBORO     CLOUDY    47  39  74 E6        30.25R
ROCKY MOUNT    CLOUDY    41  39  93 N3        30.29R
$$

VAZ100-211300-
MARINE

STATION/POSITION TIME  TEMP    WIND        PRES    WAVE   SWELL
                       AIR SEA DIR/SP/G            HT/PER HT/PER
                 (UTC) (F)     (DEG/KT/KT) (MB)    (FT/S) (FT/S)
CAPE MAY NJ      1136   35 42   30/  4/  5 1027.4R
LEWES DE         1136   42 42   80/  9/ 10 1027.7R
OCEAN-CITY-INLET 1136   42 42   30/  3/  5 1027.9R
WACHAPREAGUE VA  1136   44 48   50/  8/ 11 1026.9R
THOMAS POINT MD  1200   40 43   60/  5/  6   N/A
GOOSES REEF MD   1200   40 41  100/  6/  8 1028.4    1
COVE POINT MD    1136   39      70/  5/  6 1028.4R
SOLOMONS ISLAND  1136   41 43   50/  3/  5   N/A
BISHOPS HEAD MD  1136   40 45   40/  7/ 10 1027.8R
PINEY POINT MD   1148           80/  3/  4   N/A
POTOMAC MD       1200   42 43   70/  8/ 10 1026.7    1/ 2
CAMBRIDGE MD     1136   39 43   60/  5/  7 1026.9F
LEWISETTA VA     1136   42 46  100/ 10/ 11 1027.2R
RAPPAHANNOCK LGT 1148           40/  7/  8 1027.4R
YORK RVR RNG VA  1136   45      50/  8/  9 1026.0R
YORKTOWN VA      1136   44 47  320/  4/  4 1026.7R
JAMESTOWN VA     1200   42 49   CALM  /  2   N/A     0
DOMINION TERM VA 1136   45      CALM  /  3 1026.7R
KIPTOPEKE VA     1148      46   80/  6/  8   N/A
CHES BAY BRIDGE  1136   46 46   60/ 12/ 14 1026.1R
CAPE HENRY VA    1136   46      50/ 15/ 17   N/A
WILLOUBY STN VA  1136   46      60/  5/  7 1027.3R
S CRANEY ISL VA  1136   46      50/  7/ 10 1026.0R
CAPE HENRY BUOY  1142      47                N/A     2/ 6
OFFSHORE WE BUOY 1151      48                N/A     3/ 6
64NM E OF VA BCH 1150   51 53   80/ 14/ 16 1025.7R   4/ 6   2/ 6
DUCK PIER NC     1136   48 48   30/ 11/ 12 1024.8F
44100 DUCK FRF   1135      48                N/A     3/ 6
44056 DUCK FRF   1130      48                N/A     3/ 5
OREGON INLET NC  1136   49 51   30/ 11/ 13 1024.9R
HATTERAS NC      1136   53 57   20/ 10/ 14 1023.7R
DIAMOND SHLS NC  1150   63 76   80/ 14/ 19 1023.4R   7/ 9   5/ 9
CAPE LOOKOUT NC  1100   51      20/ 11/ 13 1023.4R
$$




USA.gov is the U.S. government's official web portal to all federal, state and local government web resources and services.